This is the latest recevied weather packets stored in our database for station/object KC8YYF. If no packets are shown the sender has not sent any weather packets the latest 10 day(s).
| Time | Temp. | Humidity | Pressure | Rain* | Wind** | Luminosity | Snow |
|---|---|---|---|---|---|---|---|
| 1778095309 | 15° C | 54% | 1012.3 hPa | 0 mm | - | 163 W/m² | - |
| 1778095006 | 15° C | 56% | 1012.4 hPa | 0 mm | - | 246 W/m² | - |
| 1778094702 | 14.44° C | 60% | 1012.6 hPa | 0 mm | - | 196 W/m² | - |
| 1778094399 | 13.89° C | 57% | 1012.5 hPa | 0 mm | - | 232 W/m² | - |
| 1778094096 | 14.44° C | 59% | 1012.5 hPa | 0 mm | - | 147 W/m² | - |
| 1778093793 | 14.44° C | 61% | 1012.3 hPa | 0 mm | - | 180 W/m² | - |
| 1778093489 | 13.89° C | 55% | 1012.6 hPa | 0 mm | - | 172 W/m² | - |
| 1778093187 | 13.89° C | 53% | 1012.7 hPa | 0 mm | - | 203 W/m² | - |
| 1778092884 | 13.33° C | 54% | 1012.2 hPa | 0 mm | - | 179 W/m² | - |
| 1778092581 | 13.89° C | 55% | 1012.5 hPa | 0 mm | - | 209 W/m² | - |
| 1778092276 | 13.33° C | 55% | 1012.5 hPa | 0 mm | - | 153 W/m² | - |
| 1778091974 | 13.33° C | 57% | 1012.5 hPa | 0 mm | - | 157 W/m² | - |
| 1778091671 | 12.78° C | 56% | 1012.7 hPa | 0 mm | - | 125 W/m² | - |
| 1778091369 | 12.78° C | 56% | 1012.4 hPa | 0 mm | - | 103 W/m² | - |
| 1778091066 | 13.33° C | 62% | 1012.6 hPa | 0 mm | - | 97 W/m² | - |
| 1778090762 | 12.78° C | 59% | 1012.5 hPa | 0 mm | - | 84 W/m² | - |
| 1778090459 | 13.33° C | 60% | 1012.5 hPa | 0 mm | - | 109 W/m² | - |
| 1778090155 | 13.89° C | 58% | 1012.4 hPa | 0 mm | - | 141 W/m² | - |
| 1778089851 | 13.89° C | 64% | 1012.4 hPa | 0 mm | - | 191 W/m² | - |
| 1778089551 | 13.33° C | 57% | 1012.5 hPa | 0 mm | - | 231 W/m² | - |
| 1778089246 | 13.89° C | 60% | 1012.6 hPa | 0 mm | - | 272 W/m² | - |
| 1778088944 | 13.33° C | 61% | 1012.4 hPa | 0 mm | - | 458 W/m² | - |
| 1778088640 | 12.78° C | 64% | 1012.4 hPa | 0 mm | - | 498 W/m² | - |
| 1778088338 | 13.33° C | 61% | 1012.4 hPa | 0 mm | - | 379 W/m² | - |
| 1778088034 | 12.78° C | 61% | 1012.3 hPa | 0 mm | - | 254 W/m² | - |
* Rain latest hour (hover to see other rain measurements)
** Current wind speed in m/s (hover to see current wind gust speed)